Regional Weather Roundup
Issued by NWS Sterling, VA

Home | Current Version | Previous Version | Graphics & Text | Print | Product List | Glossary On
Versions: 1 2 3 4 5 6 7 8 9 10 11 12 13 14 15 16 17 18 19 20 21 22 23 24 25 26 27 28
000
ASUS41 KLWX 241610
RWRLWX

REGIONAL WEATHER ROUNDUP
NATIONAL WEATHER SERVICE BALTIMORE MD/WASHINGTON DC
1200 PM EDT TUE MAY 24 2016

Note: "FAIR" indicates few or no clouds below 12,000 feet
with no significant weather and/or obstructions to visibility.
 TC=TEMPERATURE CELSIUS

 * =Non NWS site. Station does not report precipitation (e.g. rain,
    snow, etc.), thunder, or fog.

DCZ001-MDZ009-015-VAZ040>042-051-053>054-241700-
WASHINGTON METRO

CITY           SKY/WX    TMP DP  RH WIND       PRES   REMARKS
WASHINGTON NAT FAIR      77  56  48 NW10      30.02S
DULLES         FAIR      75  52  44 NW12      30.04R
ANDREWS AFB    SUNNY     75  53  44 NW8       30.01R
FT BELVOIR     FAIR      78  52  40 NW12G17   30.02S
QUANTICO       FAIR      79  53  40 NW14      30.03S
COLLEGE PARK*  FAIR      75  52  43 NW8       30.01S
LEESBURG*      FAIR      79  55  44 NW12G18   30.05S
MANASSAS*      SUNNY     77  52  41 NW9       30.04R

$$

MDZ006>007-011-014-241700-
BALTIMORE METRO

CITY           SKY/WX    TMP DP  RH WIND       PRES   REMARKS
BWI AIRPORT    PTSUNNY   77  52  41 W7        30.00R
MD SCIENCE CTR   N/A     77  49  37 MISG      30.01S
MARTIN STATE   MOSUNNY   77  55  47 NW6       30.00S
ANNAPOLIS      SUNNY     74  50  42 NW10      30.00R
FORT MEADE*    SUNNY     77  50  38 NW7       30.03R

$$

MDZ012-015-019>023-241700-
MARYLAND EASTERN SHORE

CITY           SKY/WX    TMP DP  RH WIND       PRES   REMARKS
OCEAN CITY     MOSUNNY   68  56  65 NW12      29.99R
SALISBURY      PTSUNNY   69  56  62 NW8       29.99R
CAMBRIDGE*     SUNNY     70  54  56 NW9       30.00R
EASTON*        MOSUNNY   73  59  60 N9        30.03S

$$

MDZ017>025-241700-
SOUTHERN MARYLAND

CITY           SKY/WX    TMP DP  RH WIND       PRES   REMARKS
PATUXENT RIVER MOSUNNY   74  54  49 NW13      30.01R
ST INIGOES     MOSUNNY   72  60  66 W9        30.01R
LEONARDTOWN*   MOSUNNY   73  54  49 NW7       30.03S

$$

MDZ003>005-241700-
NORTH CENTRAL MARYLAND

CITY           SKY/WX    TMP DP  RH WIND       PRES   REMARKS
FREDERICK*     SUNNY     79  55  44 NW7       30.05R
HAGERSTOWN APT SUNNY     76  52  43 NW10      30.04S
WESTMINSTER*   SUNNY     75  64  69 N8        30.02S

$$

MDZ501>502-241700-
WESTERN MARYLAND

CITY           SKY/WX    TMP DP  RH WIND       PRES   REMARKS
OAKLAND*       NOT AVBL
CUMBERLAND*    SUNNY     77  45  31 N10G16    30.10F

$$

VAZ025>031-241700-
SHENANDOAH VALLEY

CITY           SKY/WX    TMP DP  RH WIND       PRES   REMARKS
WINCHESTER*    FAIR      75  54  46 NW9       30.06S
FRONT ROYAL*   FAIR      75  55  50 N8        30.06S
LURAY*         FAIR      77  52  41 CALM      30.07S
NEW MARKET*    FAIR      76  50  40 N9        30.06F
STAUNTON*      FAIR      84  51  32 NW12      30.11S
WAYNESBORO*    FAIR      74  49  40 NW10G16   30.10F

$$

WVZ021-048>050-054>055-241700-
EASTERN WEST VIRGINIA PANHANDLE

CITY           SKY/WX    TMP DP  RH WIND       PRES   REMARKS
MARTINSBURG    FAIR      76  50  40 NW9       30.04S
PETERSBURG*    FAIR      77  54  44 NW10      30.10S

$$

VAZ036>039-050-241700-
CENTRAL FOOTHILLS

CITY           SKY/WX    TMP DP  RH WIND       PRES   REMARKS
CHARLOTTESVILL FAIR      79  51  37 VRB6      30.06R
CULPEPER*      FAIR      78  53  42 N10       30.06R
ORANGE*        FAIR      77  55  47 NE6       30.07S
GORDONSVILLE*  FAIR      77  53  42 NW3       30.05S
WARRENTON*     FAIR      79  42  26 NW10      30.05R

$$

VAZ055>057-241700-
NORTH AND CENTRAL PIEDMONT

CITY           SKY/WX    TMP DP  RH WIND       PRES   REMARKS
FREDERICKSBRG* FAIR      77  57  50 NW7       30.03R
STAFFORD*      FAIR      76  51  40 NW13      30.08R

$$

NCZ024-NYZ072-PAZ021-071-VAZ022-071-241700-
OTHER REGIONAL OBSERVATIONS

CITY           SKY/WX    TMP DP  RH WIND       PRES   REMARKS
NEW YORK CITY  CLOUDY    64  56  75 CALM      29.95S
PHILADELPHIA   PTSUNNY   72  52  49 S8        29.96S
PITTSBURGH     MOSUNNY   76  44  32 W10G22    30.09S
ROANOKE        FAIR      75  54  47 W6        30.15S
RICHMOND       FAIR      76  54  46 W7        30.05R
RALEIGH        SUNNY     77  56  48 W10       30.12F

$$

ANZ530>537-241700-
MARINE OBSERVATIONS

STATION/POSITION TIME  TEMP    WIND        PRES
                       AIR SEA DIR/SP/G
                 (UTC) (F)     (DEG/KT/KT) (MB)
THOMAS PT LIGHT  1600   71 61  360/  7/  8 1017.1R
BALT KEY BRIDGE  1500   72     330/  7/  9 1015.3F
COVE POINT       1500   68     350/ 14/ 16 1016.3R
LEWISETTA        1500   70 63  320/ 12/ 18 1016.1R
SOLOMONS ISLAND  1500   70 62  290/  6/ 12   N/A
PINEY POINT      1500          310/ 15/ 16   N/A

$$





USA.gov is the U.S. government's official web portal to all federal, state and local government web resources and services.